BEIDOU-3 G2 1 45344U 20017A 21062.75907019 -.00000149 00000-0 00000-0 0 9994 2 45344 2.5710 333.5456 0002071 45.9491 135.4837 1.00270587 3901 CZ-3B R/B 1 45345U 20017B 21060.48408777 .00012254 97076-7 49532-3 0 9991 2 45345 27.8235 201.0906 7184760 51.3688 353.3318 2.44199116 8632